Location: Newark
(12.0500°N, 61.7500°W)
Time: 15:22:54
(UTC+00:00)

Envisat - Pass Details

Date: 25 January 2020
Orbit: 764 x 766 km, 98.1° (Epoch: 17 February)

Event Time Altitude Azimuth Distance (km) Brightness Sun altitude
Rises 09:41:46 0° 34° (NE) 3,219 6.5 -12.6°
Reaches altitude 10° 09:44:32 10° 49° (NE) 2,293 5.9 -12.0°
Maximum altitude 09:48:27 23° 100° (E) 1,593 5.8 -11.1°
Drops below altitude 10° 09:52:21 10° 151° (SSE) 2,293 6.2 -10.1°
Sets 09:55:06 0° 165° (SSE) 3,219 6.7 -9.5°
